默认 日期 大小 文件数 浏览量 最新下载 xml
1953磁力链接相关资源由用户搜索指令自动获取,结果来源于网络,本站不存储任何资料,亦不承担任何责任,请于24小时内删除,搜索到7578个磁力,显示前4000条数据,用时5ms。
    ... ).cbr": 84650444, "Eagle v04 11 [1953-06-19].cbr": 17652732, "Eagle ... v04 38 [1953-12-24].cbr": 17422244, "Eagle ... ": 16953608, "Dan Dare's Spacebook (1953.Hulton) (UK) (incomplete).cbr": 63545858 ...
创建时间: 2018-10-30 17:38:33 大小:685.79 MB 文件数量:24 热度:22 最近下载:2025-02-06 08:59:04
    ... ": {"As.Aventuras.de.Peter.Pan.1953.720p.BluRay.5.1.x264 ... , "As.Aventuras.de.Peter.Pan.1953.720p.BluRay.5.1.x264 ... , "As.Aventuras.de.Peter.Pan.1953.720p.BluRay.5.1.x264 ...
创建时间: 2018-10-30 18:20:12 大小:796.32 MB 文件数量:6 热度:24 最近下载:2025-08-08 06:48:01
    {"WWW.YIFY-TORRENTS.COM.jpg": 130677, "War.Arrow.1953.720p.BluRay.x264.YIFY.mp4": 726696406}
创建时间: 2018-10-30 18:57:26 大小:693.16 MB 文件数量:2 热度:22 最近下载:2025-01-23 13:39:09
    ... и общественно-политические произведения петрашевцев .1953.pdf": 25253669, "Философские и общественно ...
创建时间: 2018-10-30 19:07:20 大小:28.78 MB 文件数量:2 热度:26 最近下载:2025-01-29 06:59:02
    ... , "Сестрица Аленушка и братец Иванушка - 1953 (Sheikn).avi": 175376596}
创建时间: 2018-10-30 19:59:18 大小:1.46 GB 文件数量:4 热度:25 最近下载:2025-01-30 00:44:03
    ... .from.Outer.Space.1953.1080p.BluRay.X264-AMIABLE. ... Came.from.Outer.Space.1953.1080p.BluRay.X264-AMIABLE ... Came.from.Outer.Space.1953.1080p.BluRay.X264-AMIABLE ... came.from.outer.space.1953.1080p.bluray.x264-amiable ... came.from.outer.space.1953.1080p.bluray.x264-amiable ...
创建时间: 2018-10-30 20:12:56 大小:7.96 GB 文件数量:6 热度:32 最近下载:2025-08-31 13:53:01
    {"Ugetsu.Monogatari.1953.720p.BluRay.FLAC.2.0.x264-DON.mkv": 7107500595}
创建时间: 2018-10-30 20:22:48 大小:6.62 GB 文件数量:1 热度:39 最近下载:2025-06-25 09:38:01
    {"rene.marker.statui.tozhe.umiraut.1953.avi": 431151104, "rene.marker.statui.tozhe.umiraut.1953.srt": 32135}
创建时间: 2018-10-30 20:41:06 大小:411.21 MB 文件数量:2 热度:29 最近下载:2025-08-05 18:25:06
    ... ": 2335434752, "Gentlemen.Prefer.Blondes.1953.HDRip.2.18.All.Films ... 307182848, "Gentlemen.Prefer.Blondes.1953.HDRip.2.18.All.Films ... 131649024, "Gentlemen.Prefer.Blondes.1953.HDRip.2.18.All.Films ... 131649024, "Gentlemen.Prefer.Blondes.1953.HDRip.2.18.All.Films ...
创建时间: 2018-10-30 20:46:41 大小:2.71 GB 文件数量:7 热度:27 最近下载:2025-08-04 07:18:07
    {"Torrent downloaded from......txt": 150, "Torrent downloaded from demonoid.ph.txt": 46, "The.Magnetic.Monster.1953.Bluray.1080p.DTS-HD-2.0.x264-Grym.mkv": 8551244942}
创建时间: 2018-10-30 21:32:02 大小:7.96 GB 文件数量:3 热度:32 最近下载:2024-08-30 20:32:02
    {"WWW.YTS.RE.jpg": 208047, "Calamity.Jane.1953.720p.BluRay.x264.YIFY.mp4": 844987339}
创建时间: 2018-10-30 22:14:11 大小:806.04 MB 文件数量:2 热度:23 最近下载:2025-10-12 04:37:02
    {"The War Of The Worlds (1953).mp4": 1227393471, "The War of the Worlds (1953) CD.png": 2725579, "The War Of The Worlds (1953) Sample.mp4": 33498484, "The War of the Worlds (1953) Front Cover.jpg": 354932}
创建时间: 2018-10-30 23:18:40 大小:1.18 GB 文件数量:4 热度:25 最近下载:2025-01-20 12:43:04
    {"Saadia [Cornel Wilde] (1953) DVDRip Oldies.avi": 1468436480, "Saadia [Cornel Wilde] (1953) DVDRip Oldies espanhol.srt": 53488}
创建时间: 2018-10-31 00:20:07 大小:1.37 GB 文件数量:2 热度:28 最近下载:2025-02-03 04:18:01
    {"city.that.never.sleeps.1953.1080p.bluray.x264-sadpanda.nfo": 7439, "City.That.Never.Sleeps.1953.1080p.BluRay.x264-SADPANDA[N1C].mkv": 5861480899}
创建时间: 2018-10-31 00:38:06 大小:5.46 GB 文件数量:2 热度:22 最近下载:2025-08-24 16:32:02
    {"00.nfo": 36, "Downloaded From PublicHD.SE.txt": 92, "Sommaren med Monika 1953 720p BluRay x264 FLAC-EA.mkv": 7193474764}
创建时间: 2018-10-31 00:43:47 大小:6.7 GB 文件数量:3 热度:29 最近下载:2025-01-10 13:58:07
    ... .COM.txt": 248, "The.Robe.1953.720p.BrRip.x264.Obit11.ThumperDC ... .mkv": 825337033, "The.Robe.1953.720p.BrRip.x264.Obit11.ThumperDC ... .srt": 106590, "The.Robe.1953.720p.BrRip.x264.Obit11.ThumperDC ...
创建时间: 2018-10-31 00:46:00 大小:787.86 MB 文件数量:5 热度:28 最近下载:2025-10-02 06:36:02
    {"Jerry Lewis - Der Pruegelknabe(1953) - Dvdrip - Xvid.avi": 738865894}
创建时间: 2018-10-31 00:50:05 大小:704.64 MB 文件数量:1 热度:22 最近下载:2025-01-28 03:34:02
    {"VIDEO_TS.BUP": 16384, "VIDEO_TS.IFO": 16384, "VIDEO_TS.VOB": 4802560, "VTS_01_0.BUP": 18432, "VTS_01_0.IFO": 18432, "VTS_01_0.VOB": 45056, "VTS_01_1.VOB": 24576, "VTS_02_0.BUP": 18432, "VTS_02_0.IFO": 18432, "VTS_02_0.VOB": 59392, "VTS_02_1.VOB": 10240, ...
创建时间: 2018-10-31 01:07:39 大小:5.11 GB 文件数量:22 热度:24 最近下载:2025-01-27 08:53:04
    {"City of Bad Men [Richard Boone] (1953) DVDRip Oldies.avi": 1107908608, "City of Bad Men [Richard Boone] (1953) DVDRip Oldies Spanish.srt": 64922}
创建时间: 2018-10-31 02:30:09 大小:1.03 GB 文件数量:2 热度:17 最近下载:2025-03-26 19:18:03
    {"Roman.Holiday(1953).avi": 735789534, "Roman.Holiday(1953).HR.srt": 70599}
创建时间: 2018-10-31 04:37:18 大小:701.77 MB 文件数量:2 热度:31 最近下载:2025-08-04 06:16:09